When you browse on this site, cookies collect data to enhance your experience and personalize the content and advertising you see.
Visit our Privacy Policy to learn more. By continuing to use the site, you agree to this use of cookies and data.
  • In Österreich
  • Länderverzeichnis
  • Für 7 Tage
  • Wassertemperatur
  • Wetterkarte
  • News
  • Widgets
  • user-avatar
    Anmelden

    Stündliche Wetter Santa Cruz

    Heute, 2 April, Donnerstag

    Zeit Temperatur Niederschläge Wind Luftdruck Luftfeuchtigkeit
    00:00 +24°C° 0 mm 0 m/S 723 mmHg 79%
    01:00 +24°C° 0 mm 0 m/S 723 mmHg 81%
    02:00 +23°C° 0 mm 0 m/S 723 mmHg 82%
    03:00 +23°C° 0 mm 0 m/S 723 mmHg 83%
    04:00 +23°C° 0 mm 0 m/S 723 mmHg 83%
    05:00 +25°C° 0 mm 1 m/S 723 mmHg 84%
    06:00 +26°C° 0 mm 1 m/S 723 mmHg 79%
    07:00 +25°C° 0 mm 0 m/S 724 mmHg 75%
    08:00 +26°C° 0 mm 0 m/S 725 mmHg 70%
    09:00 +31°C° 0 mm 1 m/S 725 mmHg 63%
    10:00 +33°C° 0 mm 1 m/S 725 mmHg 55%
    11:00 +36°C° 0 mm 2 m/S 725 mmHg 48%
    12:00 +37°C° 0 mm 2 m/S 725 mmHg 44%
    13:00 +38°C° 0 mm 2 m/S 724 mmHg 41%
    14:00 +39°C° 0 mm 2 m/S 723 mmHg 37%
    15:00 +38°C° 0 mm 2 m/S 723 mmHg 41%
    16:00 +37°C° 0 mm 2 m/S 723 mmHg 44%
    17:00 +36°C° 0 mm 2 m/S 723 mmHg 47%
    18:00 +33°C° 1.1 mm 3 m/S 723 mmHg 58%
    19:00 +30°C° 1.1 mm 3 m/S 724 mmHg 69%
    20:00 +27°C° 1.1 mm 4 m/S 724 mmHg 80%
    21:00 +26°C° 0.2 mm 4 m/S 725 mmHg 79%
    22:00 +26°C° 0.2 mm 5 m/S 725 mmHg 78%
    23:00 +25°C° 0.2 mm 5 m/S 725 mmHg 76%

    Morgen, 3 April, Freitag

    Zeit Temperatur Niederschläge Wind Luftdruck Luftfeuchtigkeit
    00:00 +25°C° 0 mm 5 m/S 725 mmHg 73%
    01:00 +25°C° 0 mm 5 m/S 725 mmHg 70%
    02:00 +26°C° 0 mm 5 m/S 726 mmHg 67%
    03:00 +24°C° 0 mm 6 m/S 725 mmHg 69%
    04:00 +24°C° 0 mm 6 m/S 725 mmHg 70%
    05:00 +23°C° 0 mm 6 m/S 725 mmHg 71%
    06:00 +23°C° 0 mm 6 m/S 725 mmHg 70%
    07:00 +24°C° 0 mm 6 m/S 726 mmHg 70%
    08:00 +24°C° 0 mm 6 m/S 726 mmHg 69%
    09:00 +26°C° 0 mm 6 m/S 726 mmHg 64%
    10:00 +27°C° 0 mm 6 m/S 726 mmHg 58%
    11:00 +29°C° 0 mm 5 m/S 726 mmHg 52%
    12:00 +30°C° 0 mm 5 m/S 725 mmHg 49%
    13:00 +32°C° 0 mm 5 m/S 724 mmHg 46%
    14:00 +33°C° 0 mm 5 m/S 723 mmHg 42%
    15:00 +32°C° 0 mm 4 m/S 723 mmHg 44%
    16:00 +32°C° 0 mm 4 m/S 722 mmHg 46%
    17:00 +30°C° 0 mm 3 m/S 721 mmHg 47%
    18:00 +29°C° 0 mm 2 m/S 722 mmHg 54%
    19:00 +27°C° 0 mm 2 m/S 722 mmHg 60%
    20:00 +25°C° 0 mm 1 m/S 723 mmHg 66%
    21:00 +24°C° 0 mm 1 m/S 723 mmHg 67%
    22:00 +24°C° 0 mm 1 m/S 723 mmHg 68%
    23:00 +24°C° 0 mm 1 m/S 723 mmHg 68%

    übermorgen, 4 April, Samstag

    Zeit Temperatur Niederschläge Wind Luftdruck Luftfeuchtigkeit
    00:00 +23°C° 0 mm 1 m/S 723 mmHg 69%
    01:00 +23°C° 0 mm 1 m/S 722 mmHg 70%
    02:00 +23°C° 0 mm 1 m/S 722 mmHg 70%
    03:00 +22°C° 0 mm 1 m/S 722 mmHg 71%
    04:00 +22°C° 0 mm 1 m/S 721 mmHg 72%
    05:00 +22°C° 0 mm 1 m/S 721 mmHg 73%
    06:00 +23°C° 0 mm 1 m/S 722 mmHg 69%
    07:00 +24°C° 0 mm 1 m/S 722 mmHg 65%
    08:00 +26°C° 0 mm 1 m/S 722 mmHg 60%
    09:00 +28°C° 0 mm 1 m/S 722 mmHg 56%
    10:00 +29°C° 0 mm 2 m/S 722 mmHg 51%
    11:00 +31°C° 0 mm 3 m/S 722 mmHg 46%
    12:00 +33°C° 0 mm 3 m/S 721 mmHg 45%
    13:00 +34°C° 0 mm 4 m/S 720 mmHg 44%
    14:00 +35°C° 0 mm 4 m/S 719 mmHg 43%
    15:00 +34°C° 0 mm 4 m/S 719 mmHg 45%
    16:00 +34°C° 0 mm 4 m/S 718 mmHg 48%
    17:00 +33°C° 0 mm 4 m/S 718 mmHg 50%
    18:00 +31°C° 0 mm 3 m/S 718 mmHg 56%
    19:00 +29°C° 0 mm 3 m/S 719 mmHg 62%
    20:00 +27°C° 0 mm 2 m/S 720 mmHg 68%
    21:00 +27°C° 0 mm 2 m/S 720 mmHg 67%
    22:00 +28°C° 0 mm 2 m/S 720 mmHg 66%
    23:00 +28°C° 0 mm 1 m/S 721 mmHg 66%

    5 April, Sonntag

    Zeit Temperatur Niederschläge Wind Luftdruck Luftfeuchtigkeit
    00:00 +27°C° 0 mm 2 m/S 720 mmHg 69%
    01:00 +26°C° 0 mm 2 m/S 720 mmHg 72%
    02:00 +26°C° 0 mm 2 m/S 720 mmHg 75%
    03:00 +26°C° 0 mm 3 m/S 720 mmHg 77%
    04:00 +25°C° 0 mm 3 m/S 720 mmHg 78%
    05:00 +25°C° 0 mm 3 m/S 720 mmHg 80%
    06:00 +26°C° 0 mm 4 m/S 720 mmHg 78%
    07:00 +27°C° 0 mm 4 m/S 721 mmHg 76%
    08:00 +27°C° 0 mm 5 m/S 721 mmHg 74%
    09:00 +29°C° 0 mm 6 m/S 721 mmHg 68%
    10:00 +32°C° 0 mm 6 m/S 721 mmHg 61%
    11:00 +34°C° 0 mm 7 m/S 721 mmHg 55%
    12:00 +34°C° 0 mm 7 m/S 720 mmHg 52%
    13:00 +35°C° 0 mm 8 m/S 719 mmHg 49%
    14:00 +37°C° 0 mm 8 m/S 718 mmHg 47%
    15:00 +35°C° 0 mm 7 m/S 718 mmHg 50%
    16:00 +34°C° 0 mm 7 m/S 718 mmHg 53%
    17:00 +33°C° 0 mm 6 m/S 717 mmHg 57%
    18:00 +32°C° 0 mm 6 m/S 718 mmHg 60%
    19:00 +30°C° 0 mm 6 m/S 719 mmHg 63%
    20:00 +30°C° 0 mm 6 m/S 719 mmHg 66%
    21:00 +29°C° 0 mm 6 m/S 719 mmHg 68%
    22:00 +29°C° 0 mm 6 m/S 720 mmHg 70%
    23:00 +28°C° 0 mm 6 m/S 720 mmHg 72%

    6 April, Montag

    Zeit Temperatur Niederschläge Wind Luftdruck Luftfeuchtigkeit
    00:00 +28°C° 0 mm 6 m/S 720 mmHg 75%
    01:00 +28°C° 0 mm 6 m/S 720 mmHg 77%
    02:00 +27°C° 0 mm 6 m/S 720 mmHg 80%
    03:00 +27°C° 0 mm 6 m/S 720 mmHg 81%
    04:00 +27°C° 0 mm 5 m/S 720 mmHg 82%
    05:00 +27°C° 0 mm 5 m/S 720 mmHg 83%
    06:00 +27°C° 0 mm 5 m/S 721 mmHg 81%
    07:00 +27°C° 0 mm 5 m/S 722 mmHg 79%
    08:00 +28°C° 0 mm 5 m/S 722 mmHg 78%
    09:00 +30°C° 0 mm 4 m/S 723 mmHg 69%
    10:00 +32°C° 0 mm 4 m/S 723 mmHg 60%
    11:00 +34°C° 0 mm 4 m/S 724 mmHg 51%
    12:00 +35°C° 0.1 mm 4 m/S 723 mmHg 48%
    13:00 +36°C° 0.1 mm 4 m/S 723 mmHg 45%
    14:00 +37°C° 0.1 mm 3 m/S 722 mmHg 42%
    15:00 +35°C° 0.3 mm 3 m/S 722 mmHg 48%
    16:00 +34°C° 0.3 mm 3 m/S 722 mmHg 55%
    17:00 +32°C° 0.3 mm 2 m/S 722 mmHg 61%
    18:00 +29°C° 1 mm 3 m/S 722 mmHg 72%
    19:00 +27°C° 1 mm 4 m/S 723 mmHg 82%
    20:00 +25°C° 1 mm 5 m/S 723 mmHg 93%
    21:00 +25°C° 0.1 mm 5 m/S 724 mmHg 90%
    22:00 +25°C° 0.1 mm 5 m/S 724 mmHg 88%
    23:00 +25°C° 0.1 mm 5 m/S 725 mmHg 85%

    7 April, Dienstag

    Zeit Temperatur Niederschläge Wind Luftdruck Luftfeuchtigkeit
    00:00 +25°C° 0 mm 5 m/S 725 mmHg 82%
    01:00 +25°C° 0 mm 5 m/S 725 mmHg 78%
    02:00 +26°C° 0 mm 6 m/S 725 mmHg 74%
    03:00 +26°C° 0 mm 6 m/S 725 mmHg 72%
    04:00 +26°C° 0 mm 6 m/S 725 mmHg 70%
    05:00 +26°C° 0 mm 6 m/S 724 mmHg 68%
    06:00 +26°C° 0 mm 6 m/S 725 mmHg 66%
    07:00 +27°C° 0 mm 6 m/S 726 mmHg 64%
    08:00 +27°C° 0 mm 7 m/S 726 mmHg 62%
    09:00 +28°C° 0 mm 6 m/S 726 mmHg 58%
    10:00 +29°C° 0 mm 6 m/S 727 mmHg 55%
    11:00 +30°C° 0 mm 6 m/S 727 mmHg 51%
    12:00 +30°C° 0 mm 6 m/S 726 mmHg 50%
    13:00 +30°C° 0 mm 5 m/S 725 mmHg 50%
    14:00 +30°C° 0 mm 5 m/S 724 mmHg 49%
    15:00 +30°C° 0 mm 4 m/S 724 mmHg 49%
    16:00 +30°C° 0 mm 4 m/S 724 mmHg 49%
    17:00 +30°C° 0 mm 3 m/S 723 mmHg 49%
    18:00 +29°C° 0 mm 3 m/S 723 mmHg 52%
    19:00 +28°C° 0 mm 2 m/S 724 mmHg 56%
    20:00 +27°C° 0 mm 2 m/S 724 mmHg 59%
    21:00 +27°C° 0 mm 2 m/S 725 mmHg 58%
    22:00 +27°C° 0 mm 3 m/S 725 mmHg 58%
    23:00 +27°C° 0 mm 3 m/S 726 mmHg 57%
    Mehr zeigen